[[{"header":{"parameterUnit":"m.s-1","parameterCategory":1,"la1":30.2991,"la2":30.254,"lo1":-89.0895,"lo2":-89.0444,"dy":0.0017,"dx":0.0017,"nx":28,"ny":28,"refTime":"2024-12-03T09:00:00:Z","depth":0,"parameterNumber":2,"parameterNumberName":"U-component_of_WINDS"},"data":[0,0,0,0,0,0,0,0,0,0,0,0,0,0,0,0,0,0,0,0,0,0,0,0,0,0,0,0,0,0,0,0,0,0,0,0,0,0,0,0,0,0,0,0,0,0,0,0,0,0,0,0,0,0,0,0,0,0,-4.4897,-4.4897,0,-4.4963,-4.4964,-4.4964,-4.4861,-4.4857,-4.4854,-4.485,-4.4916,-4.4921,-4.4926,0,0,0,0,0,0,0,0,0,0,0,0,0,-4.4677,-4.4682,-4.4897,-4.4897,-4.4898,-4.4963,-4.4964,-4.4964,-4.4861,-4.4857,-4.4853,-4.4849,-4.4914,-4.492,-4.4926,0,0,0,0,0,0,0,0,0,0,0,0,0,-4.4761,-4.4683,-4.4896,-4.4855,-4.4851,-4.4963,-4.4964,-4.4965,-4.4862,-4.4857,-4.4851,-4.4846,-4.4912,-4.4919,-4.4927,-4.5081,0,0,-4.495,-4.4953,0,0,0,0,0,0,0,0,-4.4756,-4.4769,-4.486,-4.4858,-4.4854,-4.4898,-4.491,-4.5004,-4.4864,-4.4858,-4.485,-4.4844,-4.4914,-4.4921,-4.4945,-4.5084,-4.5087,-4.4951,-4.4955,-4.4959,-4.4961,0,0,0,0,0,0,0,-4.475,-4.4765,-4.4923,-4.4861,-4.4858,-4.4831,-4.4837,-4.4927,-4.4915,-4.4858,-4.4851,-4.486,-4.4911,-4.4938,-4.4946,-4.5088,-4.4951,-4.4957,-4.4962,-4.4965,-4.5354,-4.5359,0,0,0,0,0,0,-4.475,-4.4761,-4.492,-4.4925,-4.4791,-4.484,-4.4846,-4.4889,-4.4914,-4.4913,-4.4865,-4.4855,-4.4928,-4.4937,-4.4948,-4.5127,-4.4959,-4.4966,-4.497,-4.5348,-4.5355,-4.5361,0,0,0,0,0,0,-4.4746,-4.4765,-4.4918,-4.4841,-4.4858,-4.4849,-4.4898,-4.4894,-4.492,-4.4919,-4.4916,-4.4894,-4.4924,-4.4937,-4.5048,-4.5128,-4.4969,-4.4976,-4.5341,-4.535,-4.5358,-4.5489,0,0,0,0,0,0,-4.474,-4.4764,-4.4824,-4.4843,-4.4863,-4.5019,-4.4903,-4.4899,-4.4934,-4.4922,-4.4946,-4.4945,-4.4921,-4.5037,-4.5056,-4.5136,-4.4982,-4.5334,-4.5345,-4.5355,-4.5478,-4.5501,-4.5522,0,0,0,0,0,-4.4733,-4.4858,-4.4827,-4.4847,-4.4937,-4.5023,-4.5034,-4.5005,-4.4941,-4.4999,-4.4998,-4.4944,-4.5117,-4.505,-4.507,-4.5153,-4.5329,-4.5342,-4.5354,-4.5468,-4.5497,-4.5521,0,0,0,0,0,0,-4.4848,-4.486,-4.4826,-4.4962,-4.4993,-4.5006,-4.5079,-4.5037,-4.5086,-4.5072,-4.5033,-4.5039,-4.5158,-4.5167,-4.5091,-4.5302,-4.5212,-4.523,-4.5291,-4.5319,-4.534,-4.5334,-4.4988,0,0,0,0,0,-4.489,-4.496,-4.4966,-4.5086,-4.5103,-4.5089,-4.5125,-4.51,-4.5129,-4.5141,-4.5148,-4.5179,-4.5239,-4.528,-4.5336,-4.548,-4.5481,-4.5547,-4.5569,-4.5587,-4.5601,-4.5675,-4.5703,-4.5404,-4.5404,-4.5403,0,0,-4.4976,-4.4991,-4.5038,-4.5109,-4.513,-4.5201,-4.51,-4.5181,-4.5233,-4.5153,-4.5258,-4.5265,-4.5295,-4.5422,-4.5479,-4.5434,-4.5685,-4.5603,-4.5618,-4.5622,-4.5691,-4.5719,-4.5744,-4.5412,-4.5411,-4.5409,0,0,-4.5168,-4.5189,-4.5288,-4.5311,-4.5344,-4.5334,-4.5358,-4.5378,-4.5379,-4.5484,-4.5424,-4.5486,-4.5592,-4.5615,-4.5641,-4.5843,-4.5793,-4.5862,-4.5975,-4.6047,-4.6071,-4.6091,-4.616,-4.6185,-4.5877,-4.5878,-4.5878,0,-4.5271,-4.5377,-4.5345,-4.543,-4.5461,-4.5394,-4.5493,-4.5517,-4.5566,-4.5589,-4.5538,-4.5669,-4.5685,-4.5815,-4.5864,-4.5889,-4.5913,-4.5858,-4.607,-4.6091,-4.6109,-4.6174,-4.62,-4.5886,-4.5885,-4.5884,-4.5883,0,-4.55,-4.5575,-4.5652,-4.5701,-4.5742,-4.5834,-4.5814,-4.5859,-4.5831,-4.5825,-4.5931,-4.5949,-4.6006,-4.6035,-4.6008,-4.6161,-4.6132,-4.6077,-4.5985,-4.6146,-4.6206,-4.6231,-4.5897,-4.5894,-4.5892,-4.589,0,0,-4.5766,-4.5796,-4.5824,-4.5844,-4.5875,-4.5932,-4.602,-4.6076,-4.6114,-4.6151,-4.6222,-4.6313,-4.6262,-4.6291,-4.6266,-4.633,-4.6484,-4.6267,-4.6267,-4.6303,-4.665,-4.6689,-4.6719,-4.6453,-4.6458,-4.6462,-4.6647,0,-4.5955,-4.6107,-4.608,-4.6228,-4.6295,-4.6231,-4.6307,-4.6334,-4.6331,-4.6387,-4.6384,-4.6448,-4.6377,-4.6394,-4.6455,-4.6453,-4.6553,-4.644,-4.6516,-4.6519,-4.6507,-4.6751,-4.6792,-4.6966,-4.667,-4.6674,-4.6677,0,-4.6195,-4.624,-4.6395,-4.6413,-4.644,-4.6509,-4.6557,-4.6612,-4.664,-4.6634,-4.6667,-4.6629,-4.6715,-4.6625,-4.6741,-4.6664,-4.6694,-4.6698,-4.6704,-4.6707,-4.6606,-4.6757,-4.7021,-4.7046,-4.6714,-4.6711,-4.6709,0,-4.6369,-4.6469,-4.6573,-4.6593,-4.6618,-4.6667,-4.668,-4.6703,-4.6738,-4.678,-4.6802,-4.6854,-4.6882,-4.6922,-4.6899,-4.6836,-4.7018,-4.6926,-4.7013,-4.7013,-4.7051,-4.7049,-4.7321,-4.7077,-4.7077,-4.7076,-4.7076,0,-4.6581,-4.6677,-4.6651,-4.6715,-4.682,-4.6788,-4.6892,-4.6897,-4.6918,-4.698,-4.693,-4.6989,-4.6957,-4.7013,-4.6996,-4.7093,-4.7107,-4.7102,-4.7096,-4.7105,-4.7105,-4.7121,-4.7107,-4.7083,-4.7082,-4.708,-4.7079,0,-4.6792,-4.6779,-4.6888,-4.6903,-4.6908,-4.6985,-4.6996,-4.7055,-4.7049,-4.7128,-4.7145,-4.7135,-4.7199,-4.7181,-4.725,-4.7239,-4.736,-4.734,-4.7351,-4.7344,-4.7431,-4.7421,-4.772,-4.7756,-4.7493,-4.7495,-4.7497,0,-4.6927,-4.6999,-4.7021,-4.7059,-4.7076,-4.7139,-4.7174,-4.7145,-4.7184,-4.722,-4.7274,-4.7334,-4.7379,-4.7484,-4.7482,-4.7534,-4.7513,-4.7614,-4.752,-4.7526,-4.751,-4.7505,-4.751,-4.7631,-4.7634,-4.7637,-4.7639,0,-4.7166,-4.7155,-4.7208,-4.7259,-4.7303,-4.7341,-4.7375,-4.7409,-4.7383,-4.7428,-4.7493,-4.7529,-4.7599,-4.7658,-4.7705,-4.7716,-4.7673,-4.7669,-4.7691,-4.7699,-4.7701,-4.7697,-4.7398,-4.7661,-4.7659,-4.7657,-4.7656,-4.7655,-4.734,-4.74,-4.7424,-4.7485,-4.7507,-4.754,-4.7594,-4.7595,-4.7649,-4.7704,-4.7684,-4.7758,-4.7782,-4.7841,-4.7859,-4.7915,-4.7876,-4.7909,-4.7916,-4.7924,-4.7933,-4.7695,-4.7924,-4.7923,-4.7922,-4.7922,-4.7921,0,-4.7573,-4.7585,-4.7641,-4.769,-4.7737,-4.7694,-4.7728,-4.777,-4.7835,-4.7862,-4.7908,-4.7981,-4.8038,-4.8041,-4.8093,-4.8137,-4.8118,-4.8151,-4.8146,-4.8149,-4.7967,-4.7941,-4.8166,-4.8166,-4.8166,-4.8166,-4.8165,-4.8165,-4.7699,-4.7797,-4.779,-4.7898,-4.791,-4.7982,-4.8005,-4.8034,-4.8055,-4.8139,-4.8185,-4.8187,-4.8204,-4.8257,-4.8306,-4.8305,-4.8325,-4.8366,-4.8357,-4.8186,-4.8162,-4.8139,-4.8114,-4.8371,-4.8372,-4.8534,-4.8535,-4.8536]},{"header":{"parameterUnit":"m.s-1","parameterCategory":1,"la1":30.2991,"la2":30.254,"lo1":-89.0895,"lo2":-89.0444,"dy":0.0017,"dx":0.0017,"nx":28,"ny":28,"refTime":"2024-12-03T09:00:00:Z","depth":0,"parameterNumber":3,"parameterNumberName":"V-component_of_WINDS"},"data":[0,0,0,0,0,0,0,0,0,0,0,0,0,0,0,0,0,0,0,0,0,0,0,0,0,0,0,0,0,0,0,0,0,0,0,0,0,0,0,0,0,0,0,0,0,0,0,0,0,0,0,0,0,0,0,0,0,0,-1.7436,-1.7436,0,-1.7472,-1.7473,-1.7473,-1.7468,-1.7467,-1.7467,-1.7466,-1.7503,-1.7504,-1.7506,0,0,0,0,0,0,0,0,0,0,0,0,0,-1.7358,-1.736,-1.7435,-1.7436,-1.7436,-1.7472,-1.7473,-1.7473,-1.7468,-1.7467,-1.7467,-1.7466,-1.7502,-1.7504,-1.7506,0,0,0,0,0,0,0,0,0,0,0,0,0,-1.7393,-1.736,-1.7435,-1.7438,-1.7439,-1.7472,-1.7473,-1.7473,-1.7468,-1.7467,-1.7466,-1.7466,-1.7502,-1.7504,-1.7506,-1.7539,0,0,-1.7513,-1.7514,0,0,0,0,0,0,0,0,-1.7391,-1.7396,-1.7437,-1.7438,-1.7439,-1.7465,-1.7459,-1.7495,-1.7468,-1.7457,-1.7466,-1.7465,-1.7491,-1.7494,-1.7503,-1.7541,-1.7542,-1.7514,-1.7515,-1.7516,-1.7517,0,0,0,0,0,0,0,-1.7389,-1.7394,-1.745,-1.7438,-1.7439,-1.7437,-1.7441,-1.7466,-1.7479,-1.7458,-1.7458,-1.7462,-1.7491,-1.7501,-1.7504,-1.7543,-1.7513,-1.7515,-1.7517,-1.7518,-1.7607,-1.7608,0,0,0,0,0,0,-1.7386,-1.7392,-1.7449,-1.7451,-1.7412,-1.7439,-1.7443,-1.7457,-1.7478,-1.7481,-1.7463,-1.7462,-1.7497,-1.7501,-1.7505,-1.7543,-1.7516,-1.7518,-1.7519,-1.7606,-1.7607,-1.7608,0,0,0,0,0,0,-1.7384,-1.7391,-1.7447,-1.7422,-1.7429,-1.7441,-1.7457,-1.7458,-1.7468,-1.7482,-1.7484,-1.7471,-1.7497,-1.7502,-1.753,-1.7544,-1.7519,-1.7521,-1.7605,-1.7606,-1.7607,-1.762,0,0,0,0,0,0,-1.7382,-1.739,-1.7404,-1.7422,-1.743,-1.7473,-1.7458,-1.746,-1.7472,-1.7471,-1.749,-1.7492,-1.7496,-1.7527,-1.7532,-1.7547,-1.7523,-1.7603,-1.7605,-1.7607,-1.7619,-1.7622,-1.7625,0,0,0,0,0,-1.7379,-1.7406,-1.7404,-1.7411,-1.7447,-1.7473,-1.7478,-1.7483,-1.7473,-1.7486,-1.7495,-1.7491,-1.7542,-1.753,-1.7536,-1.7552,-1.7602,-1.7605,-1.7607,-1.7617,-1.7621,-1.7625,0,0,0,0,0,0,-1.7389,-1.7409,-1.7407,-1.7441,-1.7455,-1.7473,-1.7489,-1.7487,-1.7505,-1.7503,-1.7508,-1.7512,-1.754,-1.7549,-1.7535,-1.7583,-1.7571,-1.7574,-1.7576,-1.7581,-1.7584,-1.7581,-1.7525,0,0,0,0,0,-1.7395,-1.7416,-1.7431,-1.7459,-1.7467,-1.7477,-1.7488,-1.7491,-1.7506,-1.7512,-1.7523,-1.7538,-1.7557,-1.7569,-1.7588,-1.762,-1.7623,-1.7634,-1.7637,-1.7639,-1.7642,-1.7658,-1.7663,-1.7615,-1.7615,-1.7615,0,0,-1.7408,-1.7421,-1.7434,-1.7462,-1.7473,-1.7493,-1.7482,-1.7504,-1.7519,-1.7516,-1.7543,-1.7551,-1.7568,-1.7598,-1.7611,-1.7606,-1.7656,-1.7642,-1.7644,-1.7645,-1.7661,-1.7665,-1.7669,-1.7617,-1.7616,-1.7616,0,0,-1.7441,-1.7454,-1.7478,-1.7489,-1.7507,-1.7513,-1.7519,-1.7536,-1.7541,-1.7569,-1.7566,-1.7583,-1.7616,-1.7628,-1.7638,-1.7674,-1.767,-1.7679,-1.7696,-1.7711,-1.7715,-1.7718,-1.7729,-1.7734,-1.7682,-1.7682,-1.7682,0,-1.7454,-1.7485,-1.749,-1.7512,-1.7524,-1.7521,-1.7545,-1.7556,-1.7579,-1.7586,-1.758,-1.762,-1.7631,-1.7663,-1.7671,-1.768,-1.7686,-1.7677,-1.7714,-1.7717,-1.772,-1.7731,-1.7736,-1.7683,-1.7683,-1.7683,-1.7683,0,-1.75,-1.7521,-1.7538,-1.756,-1.7574,-1.7597,-1.7604,-1.7617,-1.7617,-1.7624,-1.765,-1.7664,-1.7684,-1.7692,-1.7693,-1.7723,-1.7719,-1.7713,-1.7701,-1.7726,-1.7736,-1.774,-1.7684,-1.7684,-1.7684,-1.7684,0,0,-1.7541,-1.7564,-1.757,-1.7579,-1.7598,-1.7614,-1.7636,-1.7656,-1.7666,-1.7682,-1.7699,-1.7727,-1.7721,-1.7732,-1.7734,-1.7748,-1.7774,-1.774,-1.7741,-1.7745,-1.7806,-1.781,-1.7815,-1.7772,-1.7773,-1.7773,-1.7804,0,-1.7575,-1.7614,-1.7618,-1.7653,-1.7671,-1.7669,-1.7688,-1.7701,-1.7707,-1.7723,-1.773,-1.7748,-1.774,-1.7747,-1.776,-1.7768,-1.7786,-1.7766,-1.7787,-1.7788,-1.7782,-1.782,-1.7825,-1.7853,-1.7809,-1.7809,-1.781,0,-1.762,-1.7637,-1.7673,-1.7688,-1.7696,-1.7713,-1.773,-1.7746,-1.776,-1.7763,-1.7775,-1.7775,-1.7796,-1.7783,-1.7812,-1.7798,-1.7807,-1.7812,-1.7813,-1.7815,-1.78,-1.7822,-1.7863,-1.7867,-1.7816,-1.7816,-1.7815,0,-1.7645,-1.7676,-1.7701,-1.7709,-1.7727,-1.7739,-1.7747,-1.776,-1.7771,-1.7786,-1.7793,-1.7811,-1.782,-1.7833,-1.7837,-1.7827,-1.7865,-1.7853,-1.7867,-1.7867,-1.7875,-1.7874,-1.7917,-1.7882,-1.7882,-1.7882,-1.7882,0,-1.7682,-1.7704,-1.7712,-1.7728,-1.7752,-1.7756,-1.7779,-1.7786,-1.7798,-1.7814,-1.7813,-1.7828,-1.7833,-1.7848,-1.7851,-1.7874,-1.7878,-1.7881,-1.7881,-1.788,-1.788,-1.7886,-1.7884,-1.7883,-1.7883,-1.7883,-1.7883,0,-1.7714,-1.772,-1.7747,-1.7762,-1.7766,-1.7783,-1.7795,-1.7809,-1.7814,-1.7835,-1.784,-1.7848,-1.7866,-1.7871,-1.7893,-1.7895,-1.7921,-1.792,-1.7916,-1.7916,-1.793,-1.7928,-1.7978,-1.7984,-1.7946,-1.7946,-1.7946,0,-1.7736,-1.7753,-1.7769,-1.778,-1.7788,-1.7806,-1.7816,-1.7821,-1.7832,-1.7848,-1.786,-1.7878,-1.7892,-1.7921,-1.7929,-1.7945,-1.7944,-1.796,-1.7946,-1.7944,-1.7943,-1.7941,-1.7942,-1.7962,-1.7963,-1.7963,-1.7963,0,-1.7776,-1.7778,-1.7794,-1.7811,-1.7824,-1.7838,-1.785,-1.7859,-1.7865,-1.7877,-1.7896,-1.7907,-1.7928,-1.7946,-1.7962,-1.7969,-1.7967,-1.7967,-1.7971,-1.797,-1.7967,-1.7968,-1.7922,-1.7966,-1.7966,-1.7966,-1.7965,-1.7965,-1.7803,-1.7817,-1.783,-1.7848,-1.7858,-1.7869,-1.7883,-1.789,-1.7905,-1.7923,-1.7925,-1.7944,-1.7956,-1.7977,-1.7985,-1.8,-1.7995,-1.8002,-1.8003,-1.8004,-1.8005,-1.7965,-1.8003,-1.8003,-1.8003,-1.8003,-1.8003,0,-1.7841,-1.7849,-1.7865,-1.7883,-1.7897,-1.7893,-1.7907,-1.7918,-1.7935,-1.7947,-1.7961,-1.7981,-1.7997,-1.8006,-1.8022,-1.8032,-1.8031,-1.8035,-1.8034,-1.8036,-1.8009,-1.8003,-1.8036,-1.8036,-1.8036,-1.8036,-1.8036,-1.8036,-1.7863,-1.7886,-1.7889,-1.7917,-1.7925,-1.7944,-1.7952,-1.7962,-1.7971,-1.7993,-1.8007,-1.8012,-1.8022,-1.8039,-1.8053,-1.8055,-1.806,-1.8066,-1.8067,-1.8041,-1.8038,-1.8035,-1.8029,-1.8067,-1.8067,-1.8093,-1.8093,-1.8093]}]]